Theta_e
322 319 317 315 313 312 313 313 314 315 315 315 313 309 308 307 307 307 307 307 308 308 309 309 309 308 311 314 311 310 310 310 312 312 313 315 315 316 318 316 316 317 315 315 315 314 313
323 323 319 318 316 315 313 312 313 314 315 315 316 312 308 308 308 308 308 309 308 308 308 308 309 310 313 316 310 310 310 311 312 313 312 313 314 313 315 315 316 315 315 315 316 316 315
323 323 323 321 320 318 316 314 313 313 315 316 315 315 310 308 308 309 309 309 308 308 307 308 309 308 314 313 310 310 310 310 311 312 313 311 312 315 315 316 314 314 313 314 313 315 315
323 323 324 324 322 321 319 317 313 313 314 316 316 316 315 308 308 308 308 308 308 309 309 310 309 310 316 311 311 311 311 312 311 311 311 310 310 313 314 312 312 313 313 317 315 314 315
323 323 324 325 324 323 322 321 316 312 312 315 317 316 315 316 310 309 308 308 309 310 309 310 311 313 315 310 312 311 310 311 311 311 310 308 312 314 313 316 317 316 316 316 317 313 313
323 323 323 324 324 324 324 323 321 314 312 312 317 316 316 316 316 316 309 308 310 310 312 309 311 315 312 313 311 311 310 310 311 313 314 313 314 316 315 315 317 315 315 315 316 314 312
322 323 323 323 323 323 324 324 323 318 313 312 316 317 315 316 317 313 310 312 314 317 315 315 314 315 314 312 311 314 310 311 313 314 318 316 318 319 314 313 312 313 314 315 316 311 311
321 322 323 323 323 322 322 323 324 321 315 313 312 317 316 316 316 311 314 317 313 315 320 312 313 312 311 310 315 314 311 313 316 319 317 317 320 312 311 311 312 313 314 316 316 313 313
321 321 322 322 321 321 321 322 324 322 317 315 313 317 316 316 316 314 313 313 312 314 320 315 314 315 313 311 316 317 311 313 315 317 318 318 315 311 311 313 315 315 316 315 314 313 314
320 321 321 321 321 321 321 322 322 321 317 315 315 316 316 316 320 316 314 310 311 314 322 320 318 316 314 314 316 312 310 311 315 316 316 317 311 312 313 314 314 315 312 313 314 314 316
318 319 320 320 321 320 321 322 321 319 315 314 314 314 315 313 316 316 312 310 312 317 337 319 318 314 314 315 315 315 309 311 316 317 315 322 313 313 316 316 312 315 311 311 313 314 314
312 314 316 317 319 320 321 321 319 316 315 315 313 314 316 316 317 311 310 313 318 332 334 322 319 320 319 317 317 316 313 311 311 315 314 315 310 311 313 311 310 309 312 314 313 315 318
310 309 310 315 318 320 321 321 319 315 315 315 315 313 317 315 317 313 314 319 334 333 320 323 322 319 319 320 319 317 318 317 318 322 325 318 316 311 309 312 310 311 317 323 325 322 324
311 313 316 318 319 320 320 320 317 315 315 315 316 316 319 316 315 316 319 329 334 324 323 319 319 320 320 318 318 318 318 319 317 317 319 322 325 314 309 312 315 316 315 320 325 323 320
314 315 315 316 318 319 319 319 316 315 316 317 317 319 322 320 316 317 325 331 330 323 319 320 321 321 322 318 316 318 318 320 317 315 320 321 321 309 309 309 311 314 314 312 316 317 317
315 315 315 316 317 317 317 316 315 316 318 319 318 319 322 318 316 320 327 328 324 318 317 318 321 321 322 321 318 318 320 319 317 314 313 317 319 314 307 307 308 310 309 316 315 322 325
314 315 316 315 316 316 316 316 316 317 318 319 319 321 319 315 316 323 327 326 321 315 314 318 320 320 320 321 319 319 319 317 315 312 312 314 316 317 311 311 314 308 311 311 313 322 324
315 315 315 315 315 315 315 316 316 316 317 318 320 324 318 316 325 323 323 320 311 316 312 314 314 316 318 318 318 319 320 319 312 311 313 313 315 318 319 309 309 310 313 312 319 323 320
315 315 315 316 316 316 316 316 316 316 316 314 322 323 319 317 323 321 321 320 317 316 315 315 316 316 316 317 318 318 318 314 312 311 313 312 314 319 321 314 313 314 315 314 316 316 320
312 312 312 312 312 314 314 315 315 316 316 315 320 324 322 320 318 320 320 321 322 315 315 315 316 314 315 316 316 317 317 315 311 310 308 310 313 318 322 321 320 318 318 318 317 319 319
306 308 309 309 308 309 312 313 313 314 316 315 320 323 317 322 321 320 321 321 322 321 317 315 317 316 317 319 319 319 318 317 312 311 309 311 313 315 316 318 320 321 320 320 320 318 320
300 300 301 303 304 306 308 309 310 313 315 316 320 321 317 319 319 320 319 321 321 321 321 321 321 321 317 317 317 317 315 316 318 308 310 312 316 314 318 318 319 320 319 319 319 319 319
298 298 299 300 300 299 300 303 304 307 311 315 317 315 315 317 318 320 320 319 319 319 318 317 316 316 316 316 315 314 314 314 315 316 310 312 312 313 320 318 318 321 317 318 318 310 311
297 297 297 298 298 298 298 297 297 301 304 306 312 312 316 318 317 318 318 318 319 318 318 317 314 316 315 312 313 313 313 313 314 314 314 313 312 314 319 318 321 313 307 306 301 297 296
296 297 297 297 297 297 297 297 297 298 300 303 306 311 313 316 316 317 317 317 316 316 317 317 316 315 313 313 315 317 317 317 317 315 315 315 316 316 318 320 318 315 300 302 306 295 291
295 296 296 296 296 296 296 296 297 297 298 300 302 306 310 315 315 314 316 315 317 317 317 316 314 310 312 315 317 317 319 318 318 316 307 311 316 316 317 318 319 300 294 293 295 299 289
294 294 294 295 295 295 295 295 296 297 297 298 299 303 306 312 311 312 313 313 314 315 316 314 313 312 311 315 316 316 318 316 318 318 316 312 313 317 318 320 306 288 288 291 306 294 287
293 294 294 294 294 294 294 295 295 296 296 297 298 299 302 307 308 309 311 312 313 313 315 314 314 313 312 313 316 317 318 317 316 315 316 316 316 315 315 317 315 286 289 293 286 286 284
293 293 293 293 293 293 294 294 294 295 296 296 297 299 301 303 304 305 307 308 310 311 312 313 314 313 313 311 309 309 311 308 313 316 313 316 301 305 296 293 285 284 284 283 283 284 282
Wind_Speed
26 27 26 27 27 27 27 27 27 24 19 15 12 9 7 5 4 4 4 4 3 3 3 6 8 6 3 4 5 9 10 10 7 7 7 5 4 3 2 3 4 2 3 1 3 1 5
25 26 27 29 30 30 30 29 28 27 22 18 13 10 7 4 3 2 2 2 2 3 3 7 8 6 3 1 3 8 8 7 9 9 9 11 6 7 3 3 4 3 2 5 5 6 5
23 25 27 28 29 30 30 29 29 29 25 19 16 11 9 5 3 2 2 2 3 4 6 7 7 5 5 3 3 8 6 6 7 7 4 6 5 4 6 3 1 1 4 8 7 6 2
21 25 26 27 28 30 31 32 31 31 28 22 16 13 11 7 5 4 3 3 5 6 7 6 4 1 1 2 1 6 5 2 4 5 3 2 5 2 4 1 4 4 4 3 5 6 3
20 23 25 26 26 28 30 31 32 32 31 25 18 14 12 9 6 7 6 6 5 7 5 3 2 3 2 1 1 5 4 3 4 2 3 2 3 2 1 3 3 3 4 5 1 7 2
20 22 24 25 25 26 28 31 32 33 33 27 20 16 13 12 6 9 7 7 7 8 4 3 6 3 2 2 2 5 4 2 3 2 3 3 3 3 3 4 2 4 4 6 7 4 7
18 21 23 25 26 27 28 30 31 33 33 31 23 18 16 12 4 8 4 4 3 2 4 3 3 3 2 5 3 1 3 3 3 4 3 4 1 2 5 3 4 4 6 9 6 4 4
16 19 21 23 25 28 29 29 30 32 33 33 27 20 17 9 5 6 5 3 3 1 3 3 1 2 1 2 2 3 6 3 3 5 2 2 4 5 3 1 3 6 9 8 1 3 5
14 17 19 22 24 26 28 29 29 31 32 34 30 21 17 8 5 8 8 4 2 3 4 3 1 2 2 2 3 2 7 2 3 4 2 4 2 4 1 5 7 7 7 3 4 8 9
14 17 18 20 22 24 27 28 28 30 31 33 31 22 18 8 3 4 4 4 4 2 3 4 3 2 3 1 2 2 2 2 3 3 4 5 3 2 4 6 2 5 5 4 7 7 3
15 17 18 20 22 22 24 25 27 29 31 33 30 22 16 12 3 3 3 4 5 1 4 1 3 1 2 3 1 3 1 3 4 1 0 3 4 4 4 2 3 2 3 6 4 4 6
16 17 18 20 21 22 22 24 26 27 29 32 29 22 13 6 5 4 4 5 2 0 5 2 1 1 3 6 4 2 3 3 1 3 6 3 2 2 2 1 2 7 5 8 6 1 2
17 17 17 19 20 20 21 23 26 26 28 30 29 19 9 5 1 7 6 2 1 3 1 3 1 0 2 3 2 2 2 4 4 3 4 5 4 3 0 3 2 3 4 4 3 1 6
15 15 16 18 19 19 20 23 25 26 28 30 27 13 7 3 6 6 1 2 3 2 5 1 1 5 4 4 3 2 3 4 6 2 3 3 5 7 7 2 1 2 1 3 5 3 6
15 14 16 16 17 17 20 23 25 25 27 30 25 9 3 6 7 5 2 3 3 4 2 5 4 2 5 3 2 4 7 4 3 7 5 3 5 2 1 2 1 3 4 1 4 5 5
13 15 15 14 15 16 20 22 23 26 28 26 21 7 4 6 7 2 2 4 2 2 2 3 3 0 3 2 3 5 3 3 4 1 4 3 6 3 3 1 3 3 3 1 0 4 6
13 14 14 14 15 16 18 20 22 26 28 20 8 4 1 7 2 2 3 2 1 2 1 3 4 4 6 7 1 4 6 2 3 4 2 4 5 2 5 7 7 2 3 3 1 4 3
15 15 15 15 15 16 18 20 22 25 28 16 6 3 2 5 2 2 2 3 1 1 2 2 2 3 4 5 5 5 6 3 4 7 4 2 3 5 7 4 5 1 2 6 3 3 3
14 15 17 18 18 19 19 19 19 19 20 13 4 3 4 0 3 3 2 3 2 4 4 4 3 5 2 3 5 8 7 2 3 2 2 4 4 4 4 2 3 2 2 3 2 2 9
3 5 9 12 15 17 18 18 18 14 13 11 3 3 2 2 2 3 6 6 5 3 3 3 3 2 4 6 8 7 5 2 4 3 3 4 4 8 14 13 2 4 7 8 11 5 9
12 12 12 12 15 14 14 15 16 15 10 6 3 2 2 3 3 5 7 7 12 9 6 3 4 7 8 7 8 13 5 6 4 4 2 2 7 9 12 14 15 22 21 20 15 20 13
18 18 17 15 15 17 17 16 14 12 10 3 3 2 0 3 7 10 7 7 12 13 13 12 12 12 8 8 9 13 10 5 6 3 3 1 4 2 11 12 18 23 20 21 23 24 21
16 17 17 17 18 18 19 19 19 17 8 5 4 1 2 3 5 7 7 11 10 10 5 6 8 5 6 9 6 4 6 8 11 8 7 5 4 2 16 5 8 12 14 17 14 7 6
16 16 16 17 17 18 19 18 19 18 14 12 7 2 2 4 8 10 7 11 13 9 11 10 6 8 4 3 6 8 12 17 19 21 17 7 5 3 10 4 10 2 14 12 16 12 13
16 16 17 18 16 17 18 19 19 18 14 14 12 5 2 3 5 8 13 15 14 13 14 14 15 16 4 1 3 6 4 5 11 17 18 18 11 4 5 8 11 7 6 6 4 6 11
17 17 17 17 17 18 18 17 17 18 17 15 17 13 6 3 6 11 10 12 11 12 13 14 11 6 4 4 3 4 4 2 4 2 3 1 15 7 3 5 6 5 8 10 6 2 10
19 18 18 18 18 18 18 18 18 18 16 13 12 15 7 6 12 13 9 9 8 3 4 2 3 2 4 3 4 5 6 5 4 5 3 3 2 12 12 6 3 8 14 9 4 2 7
19 19 19 19 19 19 20 19 19 18 17 15 15 17 11 5 13 15 12 11 7 2 9 2 2 3 3 4 4 5 4 4 2 3 2 4 4 4 3 5 6 12 5 4 1 4 4
20 20 21 20 20 21 20 20 19 19 18 17 12 14 16 11 11 23 22 22 18 16 12 5 2 3 3 2 2 2 3 1 2 3 4 4 2 0 2 2 4 6 11 6 5 2 3
Wind_Direction
33 33 36 36 36 33 30 28 26 24 23 23 26 27 28 29 40 53 69 80 76 42 31 14 3 352 334 231 45 347 349 9 11 8 21 344 326 336 295 110 279 308 158 190 105 193 255
29 28 35 37 37 34 31 27 25 23 22 18 18 18 17 18 27 40 55 43 19 358 349 356 351 350 288 324 357 345 356 8 19 13 34 21 14 337 50 40 318 23 281 235 180 243 249
28 25 31 34 34 33 31 27 24 22 20 18 17 14 7 4 358 357 327 316 316 327 321 325 332 342 280 86 6 14 353 5 16 22 14 26 345 312 340 160 88 288 274 213 217 222 262
27 26 27 30 30 29 28 26 24 22 20 17 15 13 4 1 350 325 299 286 310 320 309 318 315 336 15 190 36 1 7 305 16 27 55 357 1 34 342 87 225 247 200 274 141 173 149
25 21 21 25 25 24 24 23 22 21 18 14 12 9 4 348 334 319 289 283 287 324 299 310 315 223 123 83 1 355 351 346 309 292 345 311 291 331 219 219 228 233 295 329 107 186 162
20 15 16 18 18 19 19 19 19 18 16 14 9 4 356 344 306 327 285 283 279 299 322 276 273 269 156 31 316 337 327 314 299 289 244 230 227 250 238 16 338 335 335 340 297 172 206
12 9 10 10 12 13 15 13 14 14 14 13 9 4 357 351 349 334 320 318 241 200 232 339 12 315 87 331 287 167 333 292 225 226 280 162 286 249 58 38 345 314 292 284 292 94 328
4 360 3 5 6 8 10 8 9 10 10 10 7 4 1 6 21 24 45 12 62 328 276 190 243 235 84 345 251 123 344 266 211 269 153 215 241 82 80 328 283 279 269 283 352 147 319
352 348 355 358 1 2 2 3 5 6 6 6 6 3 2 3 20 36 73 73 56 5 255 144 103 310 75 314 342 35 349 2 289 279 228 274 101 120 226 266 260 274 279 356 297 321 280
336 338 345 349 354 356 358 359 2 2 2 2 3 3 2 2 61 26 49 356 11 26 267 149 173 144 193 263 246 66 11 318 229 303 346 262 113 224 262 263 206 292 32 350 310 353 298
328 331 336 340 343 348 352 356 359 359 359 359 359 0 3 27 356 41 316 338 345 294 343 81 126 143 143 247 3 166 195 215 278 347 200 248 183 209 250 265 95 301 344 267 278 291 303
324 328 330 333 337 341 347 353 355 356 356 357 355 354 3 14 21 8 336 334 349 300 256 138 115 207 252 182 193 131 214 218 6 290 212 267 99 258 333 30 223 337 293 254 187 195 294
325 327 333 338 340 341 348 349 350 353 351 350 349 345 4 19 318 329 332 264 324 220 120 130 25 228 312 237 229 205 219 205 227 295 238 169 196 122 350 262 141 236 317 320 336 298 231
336 339 341 345 345 346 346 346 347 349 349 345 344 338 334 14 351 344 295 240 266 90 54 167 232 260 231 36 203 199 271 265 196 152 296 250 300 179 167 256 84 285 165 193 277 286 283
340 336 338 342 344 344 343 343 345 347 348 344 341 332 290 291 346 360 286 274 292 32 348 350 284 256 184 155 240 216 217 247 99 190 215 306 225 121 186 81 140 132 208 343 300 267 271
325 329 333 335 335 335 335 341 345 346 348 345 337 307 213 302 331 306 276 254 121 68 299 231 269 97 311 89 206 198 258 120 163 315 85 335 301 155 107 174 233 202 351 252 202 285 273
316 319 323 330 335 338 340 342 344 344 345 348 330 308 250 335 331 231 228 250 107 111 292 252 304 293 265 300 318 293 267 187 97 149 279 341 197 170 132 200 183 149 228 206 311 205 250
301 309 314 318 323 328 331 333 338 343 345 352 306 289 258 349 280 210 275 32 1 176 164 253 276 278 267 316 286 275 247 284 99 149 205 185 296 262 238 95 73 43 262 178 160 207 239
298 308 308 309 312 314 318 324 331 346 357 343 303 270 280 50 268 285 108 161 217 197 214 186 251 220 26 282 287 237 267 110 99 205 277 187 232 301 291 117 54 38 329 230 137 224 226
342 343 350 339 330 323 322 319 320 333 347 347 291 303 227 231 136 293 318 298 277 190 262 235 285 63 263 238 237 268 289 174 129 220 14 355 254 227 256 265 14 222 236 229 216 217 261
3 354 344 347 5 356 332 325 318 316 329 344 239 258 56 306 306 2 318 297 288 286 212 171 236 223 259 279 285 274 323 355 158 121 98 277 253 254 266 284 291 276 275 262 235 241 241
4 3 1 349 341 340 341 340 335 313 295 267 286 275 148 284 294 279 270 264 276 278 274 280 275 279 278 269 275 303 312 308 278 143 173 311 273 295 271 258 260 267 264 261 252 254 242
6 0 359 358 356 348 335 333 347 347 337 268 296 272 239 223 259 256 242 263 287 319 254 250 293 305 280 280 307 285 258 249 245 229 199 186 206 210 276 263 315 279 253 248 252 49 324
360 354 350 349 353 354 352 340 327 343 356 328 305 315 268 255 232 240 267 270 274 269 270 282 236 257 247 347 303 284 261 259 251 247 227 200 185 199 279 291 264 146 40 76 99 50 25
358 355 352 350 346 347 346 346 344 337 331 326 296 302 246 251 242 256 254 258 272 278 273 270 263 258 219 89 286 288 252 242 242 247 233 225 221 232 244 234 280 243 32 21 30 64 28
349 347 346 344 342 343 343 339 336 335 330 325 307 284 269 289 240 237 248 243 255 260 269 263 266 88 103 190 201 232 251 338 273 214 39 7 225 212 213 241 248 45 342 334 294 155 22
338 337 335 334 334 334 335 334 332 331 329 319 291 289 292 267 259 250 242 254 234 223 264 278 262 181 120 200 227 213 249 225 256 229 188 145 224 228 235 261 107 335 311 310 197 49 34
333 333 332 330 329 328 328 329 331 330 329 321 293 289 286 273 275 267 264 262 267 228 253 190 292 205 181 231 217 234 233 212 236 328 264 201 208 202 201 232 235 342 60 58 20 49 23
328 328 326 324 323 323 322 323 322 321 326 320 296 297 288 261 272 307 286 274 260 272 260 227 226 172 194 194 261 276 230 231 237 249 155 213 325 319 46 38 106 26 86 75 40 33 5